Location: Unspecified
(42.3650°N, 71.1030°W)
Time: 14:57:23
(UTC+00:00)

Cosmos 2034 Rocket - Pass Details

Date: 02 March 2024
Orbit: 957 x 1000 km, 82.9° (Epoch: 18 April)

Event Time Altitude Azimuth Distance (km) Brightness Sun altitude
Rises 22:58:20 0° 175° (S) 3,670 7.0 -4.9°
Reaches altitude 10° 23:00:51 10° 171° (S) 2,732 6.3 -5.4°
Maximum altitude 23:07:01 62° 93° (E) 1,109 4.1 -6.5°
Drops below altitude 10° 23:13:16 10° 14° (NNE) 2,774 6.2 -7.6°
Sets 23:15:51 0° 11° (NNE) 3,731 6.9 -8.1°
